FW7023 Weather Reports


Display with metric or nautical units.
time (UTC)temp
F
wind
direction
speed
MPH
gust
MPH
rain 1hr
in
rain 24hr
in
rain mn
in
humidity
%
barometer
mb
20260503032349 47 167 0.0 0.0 0.00 0.00 0.00 74 1017.9
20260503031845 48 168 0.0 0.0 0.00 0.00 0.00 74 1017.8
20260503031343 48 167 0.0 0.0 0.00 0.00 0.00 73 1018.0
20260503030839 48 167 0.0 0.0 0.00 0.00 0.00 73 1017.7
20260503030336 48 167 0.0 0.0 0.00 0.00 0.00 72 1017.8
20260503025833 49 167 0.0 0.0 0.00 0.00 0.00 70 1018.1
20260503025330 49 167 0.0 0.0 0.00 0.00 0.00 69 1018.0
20260503024827 50 167 0.0 0.0 0.00 0.00 0.00 68 1018.0
20260503024324 50 167 0.0 0.0 0.00 0.00 0.00 67 1018.0
20260503023820 50 167 0.0 0.0 0.00 0.00 0.00 63 1018.0
20260503023318 50 167 0.0 0.0 0.00 0.00 0.00 61 1018.0
20260503022814 51 167 0.0 0.0 0.00 0.00 0.00 59 1018.0
20260503022309 51 167 0.0 0.0 0.00 0.00 0.00 58 1017.7
20260503021805 52 167 0.0 0.0 0.00 0.00 0.00 57 1018.0
20260503021302 52 167 0.0 0.0 0.00 0.00 0.00 56 1018.0
20260503020759 52 168 0.0 0.0 0.00 0.00 0.00 54 1017.8
20260503020257 53 168 0.0 0.0 0.00 0.00 0.00 53 1018.0
20260503015753 53 168 0.0 0.0 0.00 0.00 0.00 52 1017.7
20260503015250 53 168 0.0 0.0 0.00 0.00 0.00 53 1017.7
20260503014745 53 168 0.0 0.0 0.00 0.00 0.00 53 1017.7
20260503014244 54 168 0.0 0.0 0.00 0.00 0.00 53 1017.6
20260503013741 54 167 0.0 0.0 0.00 0.00 0.00 51 1017.7
20260503013238 55 167 0.0 0.0 0.00 0.00 0.00 50 1017.5
20260503012735 55 167 0.0 0.0 0.00 0.00 0.00 49 1017.7
20260503012233 56 167 0.0 0.0 0.00 0.00 0.00 47 1017.6
20260503011729 56 167 0.0 0.0 0.00 0.00 0.00 48 1017.7
20260503011226 57 159 0.0 0.0 0.00 0.00 0.00 46 1017.6
20260503010722 58 156 0.0 0.0 0.00 0.00 0.00 46 1017.5
20260503010220 58 174 0.0 0.0 0.00 0.00 0.00 43 1017.6
20260503005717 59 173 1.0 1.0 0.00 0.00 0.00 41 1017.6
20260503005214 59 167 1.0 1.0 0.00 0.00 0.00 40 1017.7
20260503004710 60 184 1.0 1.0 0.00 0.00 0.00 37 1017.7
20260503004209 61 163 0.0 0.0 0.00 0.00 0.00 36 1017.6
20260503003706 62 169 0.0 0.0 0.00 0.00 0.00 35 1017.5
20260503003203 63 166 0.0 0.0 0.00 0.00 0.00 34 1017.6
20260503002659 63 152 0.0 0.0 0.00 0.00 0.00 31 1017.7
20260503002156 63 165 0.0 0.0 0.00 0.00 0.00 30 1017.6
20260503001651 63 164 0.0 0.0 0.00 0.00 0.00 32 1017.9
20260503001149 63 174 0.0 1.0 0.00 0.00 0.00 31 1017.7
20260503000647 63 359 3.0 5.0 0.00 0.00 0.00 30 1017.7
20260503000143 63 152 0.0 0.0 0.00 0.00 0.00 31 1017.7
20260502235640 63 157 0.0 0.0 0.00 0.00 0.00 30 1017.6
20260502235138 63 194 2.0 2.0 0.00 0.00 0.00 29 1017.9
20260502234633 64 155 0.0 1.0 0.00 0.00 0.00 28 1017.8
20260502234131 65 214 3.0 3.0 0.00 0.00 0.00 28 1017.9
20260502233627 65 292 1.0 2.0 0.00 0.00 0.00 29 1017.7
20260502233124 66 193 0.0 1.0 0.00 0.00 0.00 27 1017.6
20260502232619 66 173 0.0 0.0 0.00 0.00 0.00 28 1017.8
20260502232118 66 187 0.0 0.0 0.00 0.00 0.00 28 1017.9
20260502231614 66 153 0.0 0.0 0.00 0.00 0.00 29 1017.9
20260502231112 67 145 0.0 0.0 0.00 0.00 0.00 27 1018.0
20260502230610 67 103 0.0 0.0 0.00 0.00 0.00 29 1017.7
20260502230108 67 159 0.0 0.0 0.00 0.00 0.00 28 1018.0
20260502225603 68 184 3.0 3.0 0.00 0.00 0.00 27 1018.0
20260502225101 67 132 1.0 1.0 0.00 0.00 0.00 27 1018.0
20260502224556 67 159 0.0 0.0 0.00 0.00 0.00 28 1018.1
20260502224054 68 101 0.0 1.0 0.00 0.00 0.00 27 1017.9
20260502223552 68 200 1.0 1.0 0.00 0.00 0.00 27 1018.1
20260502223050 68 76 0.0 1.0 0.00 0.00 0.00 26 1018.2
20260502222547 67 158 0.0 0.0 0.00 0.00 0.00 26 1018.3
20260502222043 67 181 1.0 2.0 0.00 0.00 0.00 27 1018.4
20260502221539 67 168 1.0 2.0 0.00 0.00 0.00 27 1018.1
20260502221036 66 159 2.0 3.0 0.00 0.00 0.00 27 1018.3
20260502220532 67 60 1.0 1.0 0.00 0.00 0.00 28 1018.4
20260502220029 67 174 1.0 2.0 0.00 0.00 0.00 29 1018.4
20260502215526 67 166 0.0 1.0 0.00 0.00 0.00 29 1018.4
20260502215023 67 157 0.0 0.0 0.00 0.00 0.00 29 1018.5
20260502214520 67 133 0.0 1.0 0.00 0.00 0.00 27 1018.6
20260502214017 67 179 0.0 0.0 0.00 0.00 0.00 26 1018.7
20260502213514 67 140 1.0 3.0 0.00 0.00 0.00 28 1018.6
20260502213012 66 159 0.0 0.0 0.00 0.00 0.00 28 1018.6
20260502212510 65 135 0.0 1.0 0.00 0.00 0.00 28 1018.6
20260502212008 65 61 2.0 5.0 0.00 0.00 0.00 27 1018.5
20260502211503 66 68 3.0 3.0 0.00 0.00 0.00 28 1018.7
20260502211001 65 164 2.0 2.0 0.00 0.00 0.00 28 1018.9
20260502210457 64 125 0.0 0.0 0.00 0.00 0.00 32 1018.6
20260502205954 64 49 1.0 3.0 0.00 0.00 0.00 29 1018.7
20260502205450 64 84 3.0 3.0 0.00 0.00 0.00 29 1018.8
20260502204948 65 92 0.0 1.0 0.00 0.00 0.00 28 1018.9
20260502204445 64 251 3.0 3.0 0.00 0.00 0.00 27 1019.1
20260502203943 66 65 1.0 2.0 0.00 0.00 0.00 28 1018.9
20260502203440 66 254 2.0 3.0 0.00 0.00 0.00 29 1019.0
20260502202936 66 13 1.0 1.0 0.00 0.00 0.00 29 1018.9
20260502202432 66 176 0.0 0.0 0.00 0.00 0.00 28 1019.4
20260502201931 65 191 0.0 1.0 0.00 0.00 0.00 29 1019.4
20260502201426 65 181 0.0 0.0 0.00 0.00 0.00 27 1019.4
20260502200924 65 76 1.0 2.0 0.00 0.00 0.00 28 1019.6
20260502200419 64 122 1.0 1.0 0.00 0.00 0.00 28 1019.6
20260502195917 64 191 1.0 1.0 0.00 0.00 0.00 28 1019.5
20260502195414 64 164 0.0 1.0 0.00 0.00 0.00 28 1019.7
20260502194910 65 168 0.0 0.0 0.00 0.00 0.00 29 1019.8
20260502194407 65 163 0.0 0.0 0.00 0.00 0.00 32 1019.7
20260502193903 66 68 2.0 2.0 0.00 0.00 0.00 29 1019.9
20260502193400 65 175 0.0 0.0 0.00 0.00 0.00 31 1019.9
20260502192855 63 184 0.0 0.0 0.00 0.00 0.00 29 1019.7
20260502192353 64 84 4.0 5.0 0.00 0.00 0.00 29 1019.8
20260502191850 64 119 1.0 2.0 0.00 0.00 0.00 33 1019.9
20260502191348 63 181 0.0 1.0 0.00 0.00 0.00 29 1019.8
20260502190845 63 88 1.0 1.0 0.00 0.00 0.00 29 1020.1
20260502190342 63 70 1.0 1.0 0.00 0.00 0.00 29 1020.3
20260502185838 62 177 0.0 0.0 0.00 0.00 0.00 32 1020.3
20260502185334 64 196 1.0 2.0 0.00 0.00 0.00 27 1020.2
20260502184831 63 313 0.0 2.0 0.00 0.00 0.00 32 1020.4
20260502184326 62 173 1.0 1.0 0.00 0.00 0.00 32 1020.5
20260502183823 61 175 0.0 0.0 0.00 0.00 0.00 34 1020.3
20260502183319 61 81 1.0 2.0 0.00 0.00 0.00 29 1020.5
20260502182814 63 55 2.0 3.0 0.00 0.00 0.00 29 1020.5
20260502182310 63 357 2.0 5.0 0.00 0.00 0.00 31 1020.5
20260502181807 62 140 0.0 1.0 0.00 0.00 0.00 32 1020.8
20260502181306 64 148 4.0 5.0 0.00 0.00 0.00 30 1020.6
20260502180803 62 196 0.0 0.0 0.00 0.00 0.00 33 1020.8
20260502180300 63 89 1.0 2.0 0.00 0.00 0.00 31 1020.8
20260502170219 61 87 3.0 5.0 0.00 0.00 0.00 34 1021.0
20260502164207 61 149 1.0 1.0 0.00 0.00 0.00 39 1021.1
20260502163702 61 138 1.0 1.0 0.00 0.00 0.00 34 1021.3
20260502163159 59 59 1.0 2.0 0.00 0.00 0.00 38 1021.3
20260502162656 59 47 6.0 8.0 0.00 0.00 0.00 37 1021.2
20260502162153 60 60 1.0 1.0 0.00 0.00 0.00 37 1021.1
20260502161650 59 136 0.0 0.0 0.00 0.00 0.00 40 1021.1
20260502161146 60 124 1.0 1.0 0.00 0.00 0.00 38 1021.2
20260502160645 60 159 1.0 2.0 0.00 0.00 0.00 38 1021.1
20260502160144 58 180 0.0 1.0 0.00 0.00 0.00 40 1021.1
20260502152103 58 88 1.0 1.0 0.00 0.00 0.00 44 1021.3
20260502151600 56 165 0.0 1.0 0.00 0.00 0.00 48 1021.2
20260502151058 56 59 6.0 7.0 0.00 0.00 0.00 44 1021.4
20260502150555 56 134 0.0 1.0 0.00 0.00 0.00 46 1021.5
20260502130440 42 171 0.0 0.0 0.00 0.00 0.00 85 1020.9
20260502123422 39 171 0.0 0.0 0.00 0.00 0.00 92 1020.9
20260502122920 38 171 0.0 0.0 0.00 0.00 0.00 92 1020.9
20260502122416 38 171 0.0 0.0 0.00 0.00 0.00 93 1020.7
20260502121914 38 171 0.0 0.0 0.00 0.00 0.00 93 1020.6
20260502121411 37 171 0.0 0.0 0.00 0.00 0.00 93 1020.5
20260502120909 37 171 0.0 0.0 0.00 0.00 0.00 93 1020.4
20260502120404 37 171 0.0 0.0 0.00 0.00 0.00 93 1020.3
20260502115902 37 171 0.0 0.0 0.00 0.00 0.00 93 1020.2
20260502115359 37 171 0.0 0.0 0.00 0.00 0.00 92 1020.2
20260502114854 37 171 0.0 0.0 0.00 0.00 0.00 92 1020.1
20260502114352 37 171 0.0 0.0 0.00 0.00 0.00 92 1020.3
20260502113849 37 171 0.0 0.0 0.00 0.00 0.00 92 1020.0
20260502113346 37 171 0.0 0.0 0.00 0.00 0.00 92 1020.0
20260502112845 36 171 0.0 0.0 0.00 0.00 0.00 92 1020.0
20260502112342 37 171 0.0 0.0 0.00 0.00 0.00 92 1020.0
20260502111839 37 171 0.0 0.0 0.00 0.00 0.00 91 1020.0
20260502111337 37 171 0.0 0.0 0.00 0.00 0.00 91 1019.7
20260502110834 36 171 0.0 0.0 0.00 0.00 0.00 91 1019.9
20260502110332 37 171 0.0 0.0 0.00 0.00 0.00 91 1019.9
20260502105829 37 171 0.0 0.0 0.00 0.00 0.00 91 1019.7
20260502105326 37 171 0.0 0.0 0.00 0.00 0.00 90 1019.9
20260502104824 37 171 0.0 0.0 0.00 0.00 0.00 90 1019.9
20260502104321 37 171 0.0 0.0 0.00 0.00 0.00 90 1019.9
20260502103818 37 171 0.0 0.0 0.00 0.00 0.00 90 1019.9
20260502103315 37 171 0.0 0.0 0.00 0.00 0.00 90 1019.7
20260502102813 37 171 0.0 0.0 0.00 0.00 0.00 90 1019.6
20260502102308 37 171 0.0 0.0 0.00 0.00 0.00 89 1019.7
20260502101807 38 171 0.0 0.0 0.00 0.00 0.00 89 1019.4
20260502101304 38 171 0.0 0.0 0.00 0.00 0.00 88 1019.4
20260502100803 38 171 0.0 0.0 0.00 0.00 0.00 88 1019.4
20260502100302 38 171 0.0 0.0 0.00 0.00 0.00 87 1019.6
20260502091235 39 171 0.0 0.0 0.00 0.00 0.00 82 1019.1
20260502090733 40 171 0.0 0.0 0.00 0.00 0.00 81 1019.1
20260502090229 40 171 0.0 0.0 0.00 0.00 0.00 81 1019.0
20260502071130 44 171 0.0 0.0 0.00 0.00 0.00 65 1018.6
20260502070628 44 171 0.0 0.0 0.00 0.00 0.00 64 1018.7
20260502070126 44 171 0.0 0.0 0.00 0.00 0.00 64 1018.7
20260502065624 45 171 0.0 0.0 0.00 0.00 0.00 63 1018.7
20260502065121 45 171 0.0 0.0 0.00 0.00 0.00 63 1018.5
20260502064620 45 171 0.0 0.0 0.00 0.00 0.00 62 1018.6
20260502064116 46 171 0.0 0.0 0.00 0.00 0.00 62 1018.6
20260502063614 46 168 0.0 0.0 0.00 0.00 0.00 60 1018.6
20260502063112 46 169 1.0 1.0 0.00 0.00 0.00 60 1018.5
20260502062609 46 162 0.0 0.0 0.00 0.00 0.00 59 1018.6
20260502062106 47 161 0.0 0.0 0.00 0.00 0.00 59 1018.7
20260502061604 47 161 0.0 0.0 0.00 0.00 0.00 55 1018.5
20260502061101 48 161 0.0 0.0 0.00 0.00 0.00 55 1018.6
20260502060556 49 161 0.0 0.0 0.00 0.00 0.00 55 1018.6
20260502060053 49 148 0.0 0.0 0.00 0.00 0.00 52 1018.6
20260502055551 50 161 0.0 0.0 0.00 0.00 0.00 50 1018.5
20260502055049 50 128 0.0 0.0 0.00 0.00 0.00 49 1018.6
20260502054548 50 125 0.0 1.0 0.00 0.00 0.00 49 1018.5
20260502054044 51 139 0.0 0.0 0.00 0.00 0.00 48 1018.4
20260502053541 51 143 0.0 0.0 0.00 0.00 0.00 48 1018.6
20260502053039 51 135 0.0 0.0 0.00 0.00 0.00 47 1018.7
20260502052537 51 136 0.0 1.0 0.00 0.00 0.00 47 1018.3
20260502052035 51 132 0.0 0.0 0.00 0.00 0.00 46 1018.3
20260502051533 51 133 0.0 0.0 0.00 0.00 0.00 45 1018.4
20260502051030 52 136 0.0 0.0 0.00 0.00 0.00 47 1018.4
20260502050526 52 131 0.0 0.0 0.00 0.00 0.00 46 1018.5
20260502050024 52 120 0.0 1.0 0.00 0.00 0.00 47 1018.4
20260502045520 52 124 0.0 0.0 0.00 0.00 0.00 46 1018.3
20260502045017 52 120 1.0 1.0 0.00 0.00 0.00 45 1018.5
20260502044514 53 135 0.0 0.0 0.00 0.00 0.00 45 1018.7
20260502044010 53 140 0.0 0.0 0.00 0.00 0.00 45 1018.4
20260502043508 53 154 0.0 0.0 0.00 0.00 0.00 45 1018.6
20260502043004 52 136 1.0 1.0 0.00 0.00 0.00 46 1018.4
20260502042459 52 142 1.0 1.0 0.00 0.00 0.00 47 1018.2
20260502041957 51 112 1.0 2.0 0.00 0.00 0.00 51 1018.6
20260502041455 50 139 0.0 0.0 0.00 0.00 0.00 53 1018.4
20260502040951 49 130 0.0 0.0 0.00 0.00 0.00 57 1018.3
20260502040448 48 131 0.0 0.0 0.00 0.00 0.00 62 1018.4
20260502035944 48 131 0.0 0.0 0.00 0.00 0.00 65 1018.2
20260502035440 48 132 0.0 0.0 0.00 0.00 0.00 66 1018.4
20260502034938 48 132 0.0 0.0 0.00 0.00 0.00 65 1018.2
20260502034436 48 132 0.0 0.0 0.00 0.00 0.00 64 1018.1
20260502033934 49 132 0.0 0.0 0.00 0.00 0.00 64 1018.4
20260502033432 49 132 0.0 0.0 0.00 0.00 0.00 63 1018.2
20260502032928 49 132 0.0 0.0 0.00 0.00 0.00 60 1018.0